Location: Unspecified
(48.2082°N, 0.0000°E)
Time: 20:33:43
(UTC+00:00)

S-56A Canister/Altair - Pass Details

Date: 29 June 2019
Orbit: 633 x 2499 km, 38.9° (Epoch: 21 August)

Event Time Altitude Azimuth Distance (km) Brightness Sun altitude
Rises 17:56:24 0° 272° (W) 4,917 13.2 18.2°
Reaches altitude 10° 18:00:33 10° 263° (W) 3,590 12.4 17.6°
Maximum altitude 18:07:40 29° 208° (SSW) 1,914 9.8 16.4°
Drops below altitude 10° 18:12:51 10° 149° (SSE) 2,557 9.8 15.6°
Sets 18:15:18 0° 138° (SE) 3,311 10.3 15.2°
